Weather History for Mansfield, OH

Change the Weather History Date:

Friday, September 7, 2012

  Actual Average Record
Temperature  
Mean Temperature 73 °F 66 °F  
Max Temperature 84 °F 77 °F 95 °F (1939)
Min Temperature 62 °F 56 °F 42 °F (1962)
Degree Days  
Heating Degree Days 0 2  
Month to date heating degree days 0 11  
Since 1 July heating degree days 4 36  
Cooling Degree Days 8 3  
Month to date cooling degree days 73 25  
Year to date cooling degree days 938 587  
Growing Degree Days 22 (Base 50)    
Moisture  
Dew Point 65 °F    
Average Humidity 79    
Maximum Humidity 100    
Minimum Humidity 58    
Precipitation  
Precipitation 0.41 in 0.11 in 1.64 in (1996)
Month to date precipitation 2.12 0.84  
Year to date precipitation 23.59 31.67  
Snow  
Snow 0.00 in 0.00 in - ()
Month to date snowfall 0.0 0.0  
Since 1 July snowfall 0.0 0.0  
Since 1 September snowfall 0.0 0.0  
Snow Depth 0.00 in    
Sea Level Pressure  
Sea Level Pressure 29.87 in    
Wind  
Wind Speed 7 mph (SSW)    
Max Wind Speed 21 mph    
Max Gust Speed 31 mph    
Visibility 9 miles    
Events Rain , Thunderstorm    
T = Trace of Precipitation, MM = Missing Value Source: NWS Daily Summary

Daily Weather History Graph

Daily Weather History Graph

Search for Another Location

Airport:

Trip Planner

Search our weather history database for the weather conditions in past years. The results will help you decide how hot, cold, wet, or windy it might be!

Date:

Astronomy

Sep. 07, 2012 Rise Set
Actual Time 7:03 AM EDT 7:51 PM EDT
Civil Twilight 6:35 AM EDT 8:19 PM EDT
Nautical Twilight 6:02 AM EDT 8:52 PM EDT
Astronomical Twilight 5:28 AM EDT 9:26 PM EDT
Moon 11:43 PM EDT (9/7) 1:57 PM EDT (9/7)
Length of Visible Light 13h 43m
Length of Day
12h 48m
Waning Gibbous, 58% of the Moon is Illuminated
Sep 7
Waning Gibbous
Sep 8
Last Quarter
Sep 15
New
Sep 22
First Quarter
Sep 29
Full

Hourly Weather History & Observations

Time (EDT) Temp. Heat Index Dew Point Humidity Pressure Visibility Wind Dir Wind Speed Gust Speed Precip Events Conditions
12:52 AM 66.0 °F - 64.0 °F 93% 29.93 in 10.0 mi SSW 3.5 mph - N/A   Clear
1:52 AM 66.9 °F - 63.0 °F 87% 29.92 in 10.0 mi Calm Calm - N/A   Clear
2:52 AM 66.0 °F - 63.0 °F 90% 29.91 in 10.0 mi SSW 5.8 mph - N/A   Clear
3:52 AM 66.9 °F - 64.0 °F 90% 29.90 in 10.0 mi Calm Calm - N/A   Clear
4:52 AM 66.0 °F - 64.0 °F 93% 29.91 in 10.0 mi WSW 3.5 mph - N/A   Clear
5:52 AM 64.4 °F - 62.6 °F 94% 29.95 in 8.0 mi West 4.6 mph - N/A   Clear
6:52 AM 63.0 °F - 62.1 °F 97% 29.91 in 9.0 mi SE 4.6 mph - N/A   Clear
7:52 AM 64.9 °F - 64.0 °F 97% 29.93 in 5.0 mi SSE 3.5 mph - N/A   Clear
8:52 AM 69.1 °F - 64.9 °F 87% 29.93 in 10.0 mi South 4.6 mph - N/A   Clear
9:52 AM 75.0 °F - 66.0 °F 73% 29.93 in 10.0 mi South 8.1 mph - N/A   Scattered Clouds
10:52 AM 79.0 °F - 69.1 °F 72% 29.92 in 10.0 mi SSW 8.1 mph - N/A   Clear
11:52 AM 81.0 °F 84.1 °F 69.1 °F 67% 29.92 in 10.0 mi SW 10.4 mph - N/A   Partly Cloudy
12:52 PM 82.0 °F 85.5 °F 69.1 °F 65% 29.91 in 10.0 mi South 10.4 mph - N/A   Mostly Cloudy
1:52 PM 82.0 °F 85.5 °F 69.1 °F 65% 29.89 in 10.0 mi SW 9.2 mph - N/A   Scattered Clouds
2:52 PM 82.0 °F 84.5 °F 66.9 °F 60% 29.88 in 10.0 mi SW 11.5 mph - N/A   Scattered Clouds
3:52 PM 80.1 °F 82.3 °F 66.9 °F 64% 29.87 in 10.0 mi WSW 6.9 mph - N/A   Clear
4:12 PM 69.8 °F - 60.8 °F 73% 29.95 in 2.0 mi West 17.3 mph 31.1 mph 0.00 in Rain , Thunderstorm Thunderstorms and Rain
4:14 PM 66.2 °F - 60.8 °F 83% 29.95 in 0.8 mi West 6.9 mph 31.1 mph 0.04 in Rain , Thunderstorm Thunderstorms and Rain
4:25 PM 64.4 °F - 62.6 °F 94% 29.93 in 2.0 mi Calm Calm - 0.32 in Rain , Thunderstorm Thunderstorms and Rain
4:32 PM 64.4 °F - 64.4 °F 100% 29.90 in 5.0 mi ENE 5.8 mph - 0.33 in Rain , Thunderstorm Thunderstorms and Rain
4:52 PM 66.0 °F - 64.9 °F 96% 29.86 in 10.0 mi Calm Calm - 0.34 in   Scattered Clouds
5:52 PM 68.0 °F - 64.9 °F 90% 29.81 in 10.0 mi ESE 10.4 mph - N/A   Scattered Clouds
6:52 PM 69.1 °F - 63.0 °F 81% 29.78 in 10.0 mi SE 8.1 mph - N/A   Clear
7:52 PM 66.9 °F - 63.0 °F 87% 29.77 in 10.0 mi SE 8.1 mph - N/A   Clear
8:52 PM 66.9 °F - 63.0 °F 87% 29.73 in 10.0 mi SSE 9.2 mph - N/A   Partly Cloudy
9:52 PM 66.9 °F - 64.0 °F 90% 29.75 in 10.0 mi SSE 6.9 mph - N/A   Clear
10:52 PM 69.1 °F - 64.9 °F 87% 29.72 in 10.0 mi SSE 8.1 mph - N/A   Clear
11:52 PM 69.1 °F - 66.0 °F 90% 29.71 in 9.0 mi WNW 12.7 mph 19.6 mph 0.00 in Rain Light Rain
11:59 PM 68.0 °F - 66.2 °F 94% 29.74 in 8.0 mi WNW 10.4 mph 18.4 mph N/A Rain Light Rain